CAPE
0 0 0 0 0 0 0 0 0 0 0 0 0 0 0 0 0 0 0 0 0 0 0 0 0 3 120 623 671 664 662 636 614 618 587 530 474 425 416 447 496 579 643 633 656 772 809 902 1001 1021 1006 1013 964 901 830 782 783 828 904 1002 1074 1050 982 952 1110 1202 1154 1106 1036 1052 828 1040 1298 1282 1131 1154 1247 1319 1450 1589 1762 1770 1890 1839 1899 2176
0 0 0 0 0 0 0 0 0 0 0 0 0 0 0 0 0 0 0 0 0 0 0 0 0 15 71 464 662 665 637 620 619 641 618 578 524 478 428 449 478 548 607 642 633 714 837 868 964 1012 1032 1059 1004 946 869 784 811 819 844 912 1012 1020 975 938 1073 1215 1244 1164 1107 1118 966 1026 1353 1470 1325 1233 1208 1309 1679 1776 1789 1763 1788 1852 1811 2214
0 0 0 0 0 0 0 0 0 0 0 0 0 0 0 0 0 0 0 0 0 0 0 0 4 9 49 246 528 652 609 607 611 631 635 614 566 534 487 506 508 526 584 645 651 654 765 848 912 1006 1043 1084 1068 1031 960 883 796 793 789 841 884 935 961 946 995 1160 1270 1252 1181 1174 1027 970 1307 1572 1492 1362 1326 1360 1654 1826 1850 1858 1761 1822 1884 2080
0 0 0 0 0 0 0 0 0 0 0 0 0 0 0 0 0 0 0 0 0 0 0 0 0 1 44 127 335 539 558 576 585 602 599 580 567 529 515 532 555 546 570 622 676 690 698 736 816 908 987 1081 1097 1082 1023 957 866 860 946 912 886 960 975 980 965 1232 1220 1291 1286 1233 1150 963 1082 1423 1580 1579 1443 1298 1535 1795 1882 1934 1939 1824 1972 2020
0 0 0 0 0 0 0 0 0 0 0 0 0 0 0 0 0 0 0 0 0 0 0 0 0 9 8 75 111 185 397 470 509 555 560 535 512 488 463 488 543 576 578 613 667 677 705 744 760 850 901 986 1066 1105 1093 1042 972 948 964 1042 996 1018 1017 1028 1142 1170 1148 1261 1300 1358 1333 1120 1103 1276 1444 1552 1446 1387 1408 1615 1844 1949 2044 1946 1975 2033
0 0 0 0 0 0 0 0 0 0 0 0 0 0 0 0 0 0 0 0 0 0 0 0 0 0 4 14 14 51 73 204 387 462 514 510 497 451 386 412 491 554 555 593 656 680 693 741 774 825 844 897 984 1069 1126 1105 1069 1040 1027 1121 1148 1150 1071 1045 1061 1123 1125 1215 1287 1336 1344 1256 1123 1207 1325 1487 1557 1514 1503 1446 1706 1902 2057 2059 1976 2036
0 0 0 0 0 0 0 0 0 0 0 0 0 0 0 0 0 0 0 0 0 0 0 0 0 0 0 8 2 5 41 78 131 162 419 483 483 442 396 380 453 523 532 513 600 661 679 741 784 812 850 867 913 996 1099 1158 1119 1104 1085 1122 1250 1302 1227 1108 1068 1122 1245 1160 1215 1268 1262 1213 1116 1148 1241 1404 1516 1558 1538 1476 1592 1856 2018 2074 2024 2029
0 0 0 0 0 0 0 0 0 0 0 0 0 0 0 0 0 0 0 0 0 0 0 0 0 0 0 0 0 4 23 34 16 17 158 246 412 446 391 269 416 491 535 523 546 610 656 720 772 808 810 831 870 917 1001 1141 1180 1145 1125 1118 1247 1385 1414 1279 1184 1134 1220 1158 1183 1218 1242 1204 1143 1103 1192 1278 1383 1443 1478 1477 1618 1764 1966 2059 2059 2059
0 0 0 0 0 0 0 0 0 0 0 0 0 0 0 0 0 0 0 0 0 0 0 0 0 0 0 0 0 3 11 11 18 7 27 82 124 402 254 254 404 455 502 520 519 580 662 692 750 781 795 799 820 854 926 1043 1163 1176 1150 1142 1184 1366 1469 1411 1318 1266 1181 1246 1176 1200 1225 1212 1198 1176 1174 1214 1266 1320 1354 1451 1690 1793 1919 2023 2055 2056
0 0 0 0 0 0 0 0 0 0 0 0 0 0 0 0 0 0 0 0 11 16 0 0 0 0 0 0 0 0 1 22 65 68 40 23 62 288 378 381 396 448 484 493 482 490 602 658 699 740 744 754 798 832 872 949 1056 1130 1156 1132 1126 1253 1436 1482 1431 1319 1198 1255 1244 1191 1192 1166 1198 1201 1207 1211 1237 1250 1289 1381 1582 1816 1929 2013 2043 2048
0 0 0 0 0 0 0 0 0 0 0 0 0 0 0 0 0 0 0 0 17 7 0 0 0 0 0 0 0 0 24 122 119 99 48 17 25 154 259 353 398 436 480 496 480 454 500 599 658 698 728 723 716 755 819 893 962 1034 1101 1130 1121 1157 1324 1440 1485 1447 1272 1244 1270 1215 1178 1144 1139 1180 1227 1214 1235 1225 1236 1311 1401 1715 1900 2020 2047 2044
0 0 0 0 0 0 0 0 0 0 0 0 0 0 0 0 0 0 0 0 0 0 0 0 0 0 0 0 0 0 38 46 78 98 82 27 21 38 50 92 332 426 462 482 472 454 457 522 626 678 705 692 672 682 763 865 909 953 1011 1042 1074 1085 1208 1344 1398 1406 1385 1310 1270 1209 1171 1142 1115 1131 1163 1180 1189 1238 1203 1200 1264 1480 1792 1986 2052 2060
0 0 0 0 0 0 0 0 0 0 0 0 0 0 0 0 0 0 0 0 0 0 0 0 0 0 0 0 0 0 15 72 84 76 72 44 34 51 59 89 162 359 452 472 467 473 469 480 549 632 670 667 669 678 710 837 894 931 967 986 1005 1027 1137 1257 1314 1362 1386 1353 1286 1219 1162 1145 1130 1120 1123 1118 1092 1120 1136 1106 1108 1245 1655 1860 2011 2049
0 0 0 0 0 0 0 0 0 0 0 0 0 0 0 0 0 0 0 0 0 0 0 0 0 0 0 0 0 0 1 70 55 46 31 37 55 140 146 96 154 308 427 501 498 487 494 485 486 504 575 623 648 661 689 818 877 919 952 965 961 998 1101 1240 1285 1358 1364 1311 1259 1224 1176 1147 1151 1136 1104 1098 1069 1036 1006 947 941 1015 1400 1691 1868 1959
0 0 0 0 0 0 0 0 0 0 0 0 0 0 0 0 0 0 0 0 0 0 0 0 0 0 0 0 0 0 0 0 20 46 25 4 28 138 148 168 186 320 429 526 548 544 528 511 502 493 413 545 591 612 648 780 860 895 934 961 960 974 1063 1204 1283 1339 1371 1346 1291 1255 1211 1182 1166 1161 1141 1104 1056 1004 927 865 845 859 1133 1464 1712 1848
0 0 0 0 0 0 0 0 0 0 0 0 0 0 0 0 0 0 0 0 0 0 0 0 0 0 0 0 0 0 0 0 0 7 16 0 0 31 125 164 209 360 444 537 609 613 584 553 557 564 534 432 344 572 605 733 832 870 928 954 976 991 1034 1168 1270 1328 1373 1359 1321 1300 1263 1226 1186 1158 1131 1100 1044 988 916 880 843 806 901 1250 1494 1718
0 0 0 0 0 0 0 0 0 0 0 0 0 0 0 0 0 0 0 0 0 0 0 0 0 0 0 0 0 0 0 0 0 0 0 6 4 4 31 78 203 346 466 556 646 685 674 646 633 626 597 479 361 565 605 680 794 855 901 958 995 1012 1034 1130 1249 1317 1355 1369 1334 1302 1281 1236 1185 1132 1108 1067 1020 1003 964 928 886 853 810 1050 1333 1550
0 0 0 0 0 0 0 0 0 0 0 0 0 0 0 0 0 0 0 0 0 0 0 0 0 0 0 0 0 0 0 0 0 0 0 5 14 19 40 86 145 268 459 566 661 740 755 740 722 679 652 585 566 410 563 654 705 815 875 927 984 1026 1054 1102 1206 1286 1339 1355 1344 1308 1276 1262 1206 1159 1121 1072 1016 1000 1040 974 960 932 902 932 1210 1429
0 0 0 0 0 0 0 0 0 0 0 0 0 0 0 0 0 0 0 0 0 0 0 0 0 0 0 0 0 0 0 0 0 0 0 2 10 30 60 85 157 226 398 554 674 750 789 826 806 765 709 644 613 614 642 661 691 769 831 894 942 1003 1034 1084 1169 1263 1308 1347 1349 1324 1292 1265 1250 1199 1147 1095 1009 891 1126 1095 996 963 1069 1024 1148 1432
0 0 0 0 0 0 0 0 0 0 0 0 0 0 0 0 0 0 0 0 0 0 0 0 0 0 0 0 0 0 0 0 0 0 0 0 5 23 63 107 163 324 410 518 644 746 830 868 879 845 781 704 660 660 677 686 699 708 794 865 904 941 1002 1042 1116 1202 1263 1301 1322 1311 1294 1286 1275 1254 1195 1111 1005 892 996 1256 1156 979 1089 1238 1242 1444
0 0 0 0 0 0 0 0 0 0 0 0 0 0 0 0 0 0 0 0 0 0 0 0 0 0 0 0 0 0 0 0 0 0 0 0 4 15 59 127 206 328 420 495 598 718 824 873 888 876 825 744 680 685 722 742 738 726 720 851 906 918 978 1030 1060 1116 1178 1213 1251 1259 1262 1265 1262 1261 1212 1136 1015 913 900 1076 1343 1290 1148 1276 1450 1523
0 0 0 0 0 0 0 0 0 0 0 0 0 0 0 0 0 0 0 0 0 0 0 0 0 0 0 0 0 0 0 0 0 0 0 0 4 2 45 127 212 339 411 495 584 677 759 828 891 893 854 792 750 722 739 764 768 775 759 827 924 932 968 1025 1059 1093 1137 1149 1171 1206 1199 1214 1230 1237 1215 1141 1044 952 985 976 1161 1440 1440 1327 1479 1698
0 0 0 0 0 0 0 0 0 0 0 0 0 0 0 0 0 0 0 0 0 0 0 0 0 0 0 0 0 0 0 0 0 0 0 0 0 7 45 125 286 367 437 502 600 674 717 792 869 927 928 915 876 815 800 918 934 938 898 854 948 982 983 1025 1087 1109 1137 1139 1143 1156 1158 1151 1150 1156 1158 1121 1063 1004 1076 1090 1105 1285 1541 1569 1478 1641
0 0 0 0 0 0 0 0 0 0 0 0 0 0 0 0 0 0 0 0 0 0 0 0 0 0 0 0 0 0 0 0 0 0 0 0 0 22 58 113 198 385 460 527 605 691 749 796 834 885 933 978 991 936 871 1025 1045 1065 1064 1027 1046 1068 1048 1038 1098 1165 1200 1205 1183 1162 1158 1157 1140 1135 1140 1129 1111 1129 1166 1194 1217 1294 1499 1647 1640 1590
0 0 0 0 0 0 0 0 0 0 0 0 0 0 0 0 0 0 0 0 0 0 0 0 0 0 0 0 0 0 0 0 0 0 0 0 0 40 93 133 279 414 476 538 606 710 762 790 845 900 936 1002 1010 965 1025 1105 1154 1200 1235 1229 1229 1225 1200 1158 1148 1199 1251 1280 1261 1245 1236 1219 1201 1183 1157 1150 1160 1192 1237 1292 1315 1341 1483 1657 1761 1727
0 0 0 0 0 0 0 0 0 0 0 0 0 0 0 0 0 0 0 0 0 0 0 0 0 0 0 0 0 0 0 0 0 0 0 0 0 51 112 158 216 430 504 534 611 702 775 827 907 947 973 985 988 1027 1142 1202 1272 1326 1393 1426 1431 1447 1420 1373 1334 1305 1324 1354 1357 1344 1306 1293 1272 1246 1226 1200 1200 1217 1253 1318 1374 1395 1459 1600 1796 1882
0 0 0 0 0 0 0 0 0 0 0 0 0 0 0 0 0 0 0 0 0 0 0 0 0 0 0 0 0 0 0 0 0 0 0 0 0 39 127 170 212 459 522 546 610 726 821 868 934 1001 1020 1018 1006 1014 1189 1304 1378 1472 1550 1610 1652 1681 1657 1623 1562 1505 1460 1456 1457 1450 1414 1381 1358 1332 1314 1295 1282 1260 1255 1286 1349 1400 1432 1502 1676 1875
0 0 0 0 0 0 0 0 0 0 0 0 0 0 0 0 0 0 0 0 0 0 0 0 0 0 0 0 0 0 0 0 0 0 0 0 1 64 164 326 644 446 518 555 618 756 872 927 978 1020 1060 1054 1027 1016 1134 1333 1453 1575 1692 1786 1847 1884 1896 1867 1793 1722 1662 1608 1583 1581 1556 1515 1465 1470 1472 1444 1368 1357 1332 1313 1322 1365 1399 1420 1491 1643
0 0 0 0 0 0 0 0 0 0 0 0 0 0 0 0 0 0 0 0 0 0 0 0 0 0 0 0 0 0 0 0 0 0 0 0 0 75 208 355 402 447 520 567 661 786 916 979 1004 1053 1102 1111 1082 1053 1102 1272 1449 1592 1768 1912 2023 2081 2102 2092 2025 1952 1879 1811 1766 1721 1693 1664 1632 1630 1632 1625 1569 1463 1429 1398 1381 1379 1399 1415 1424 1437
0 0 0 0 0 0 0 0 0 0 0 0 0 0 0 0 0 0 0 0 0 0 0 0 0 0 0 0 0 0 0 0 0 0 0 0 2 71 207 369 440 468 524 614 712 818 936 1003 1043 1086 1152 1184 1160 1138 1144 1225 1385 1556 1733 1938 2110 2216 2257 2265 2232 2170 2106 2038 1963 1902 1854 1821 1809 1799 1790 1784 1775 1679 1504 1474 1468 1464 1467 1464 1460 1440
0 0 0 0 0 0 0 0 0 0 0 0 0 0 0 0 0 0 0 0 0 0 0 0 0 0 0 0 0 0 0 0 0 0 0 0 0 42 172 350 444 483 555 645 728 829 941 1015 1071 1116 1168 1217 1232 1238 1237 1262 1356 1479 1633 1838 2089 2294 2422 2450 2439 2365 2316 2248 2185 2122 2071 2032 2008 1990 1976 1956 1913 1879 1737 1551 1521 1511 1522 1522 1534 1519
2 1 0 0 0 0 0 0 0 0 0 0 0 0 0 0 0 0 0 38 0 0 0 0 0 0 0 0 0 0 0 0 0 0 0 0 0 18 100 319 435 497 568 649 741 818 919 1016 1051 1115 1204 1245 1279 1298 1313 1332 1390 1466 1579 1746 1987 2251 2494 2622 2626 2574 2508 2458 2411 2361 2311 2256 2224 2192 2178 2138 2102 2074 1994 1829 1624 1551 1529 1541 1558 1567
8 7 0 0 0 0 0 0 0 17 24 0 0 0 0 0 3 12 28 21 2 0 0 0 0 0 0 0 0 59 1090 1636 1573 1326 44 0 0 18 76 296 438 508 572 648 732 807 901 999 1053 1111 1220 1298 1323 1316 1321 1390 1507 1566 1608 1714 1916 2155 2445 2680 2784 2771 2732 2675 2631 2582 2529 2490 2445 2421 2370 2332 2302 2311 2266 2153 1980 1760 1597 1561 1566 1605
7 9 1 0 0 0 0 0 8 34 19 9 57 0 0 0 63 187 167 11 8 0 0 0 0 0 0 0 122 1646 1740 1812 1872 1782 1708 339 1 7 34 253 420 510 555 638 732 815 904 974 1020 1064 1179 1336 1419 1421 1384 1495 1662 1703 1707 1780 1938 2155 2382 2634 2806 2894 2899 2874 2829 2778 2730 2685 2650 2597 2543 2507 2522 2548 2518 2427 2301 2124 1912 1671 1621 1645
3 5 5 0 0 0 0 4 20 22 6 0 0 0 0 0 0 48 18 4 0 0 0 75 212 348 1496 1899 1889 1808 1836 1983 2174 2399 2554 2369 1380 265 277 452 445 547 593 628 708 809 898 956 990 1036 1137 1270 1419 1474 1448 1506 1834 1912 1944 2025 2131 2243 2420 2611 2783 2897 2975 2996 2976 2947 2898 2854 2806 2758 2729 2728 2749 2739 2688 2609 2518 2410 2304 2147 1940 1703
1 1 1 2 2 0 5 21 11 0 0 3 6 0 0 0 0 0 80 4 0 130 711 1340 2204 2502 2324 2073 1827 1835 2111 2250 2548 2918 3024 3092 2965 2313 2096 2148 1803 1195 938 659 661 758 849 923 968 1034 1159 1227 1315 1414 1470 1710 2056 2205 2246 2260 2314 2362 2479 2664 2815 2915 2993 3049 3078 3063 3036 2994 2958 2942 2939 2944 2925 2888 2841 2760 2839 2838 2820 2689 2532 2340
1 0 3 8 8 0 10 18 6 2 4 56 17 3 0 0 0 0 116 147 366 565 1152 1965 2402 2470 2257 2013 1933 1779 1978 2376 2762 2883 3014 3093 3156 3133 3160 3081 2938 2748 2556 2358 2200 2179 1980 1776 1702 1998 2412 2006 1848 1847 1807 2206 2499 2542 2525 2520 2521 2550 2570 2725 2909 3027 3107 3147 3169 3172 3161 3139 3128 3116 3102 3085 3047 3013 2970 3016 3151 3232 3250 3202 3063 2826
2 3 6 15 18 9 26 32 14 9 0 76 27 60 0 0 0 1 20 287 532 977 1468 2096 2344 2049 1861 1726 1616 1473 1504 2182 2824 2836 2914 2777 2776 2925 2990 3048 3030 3059 3060 3025 3031 3067 3081 3141 3237 3297 2860 2876 2735 2560 2624 2800 2865 2908 2892 2831 2768 2744 2739 2782 2951 3121 3250 3334 3321 3337 3308 3278 3245 3225 3213 3185 3171 3120 3149 3250 3353 3448 3478 3459 3319 3156
3 16 13 19 31 16 32 29 24 0 11 42 74 54 6 0 0 0 172 361 731 1230 1687 2080 2123 1871 1628 1464 1428 1243 1938 2221 2711 2873 2788 2674 2739 2950 3101 3127 3170 3225 3283 3326 3430 3492 3531 3587 3638 3674 3730 3768 3754 3610 3070 3077 3150 3119 3136 3113 3057 2999 2960 2926 2799 2938 3306 3465 3510 3525 3506 3467 3436 3394 3370 3352 3258 3286 3360 3441 3524 3579 3614 3617 3553 3448
2 13 18 28 38 28 32 26 28 9 8 16 56 67 0 0 0 0 274 402 814 1315 1641 1872 1883 1614 1715 1740 1780 1794 2121 2303 2199 2546 2640 2648 2566 2626 2865 3004 3039 3123 3265 3420 3484 3575 3675 3693 3718 3753 3794 3868 3974 3855 3418 3409 3458 3451 3390 3383 3325 3282 3244 3184 3234 3256 3314 3344 3634 3714 3692 3663 3624 3589 3534 3516 3432 3460 3541 3603 3664 3702 3726 3717 3675 3642
0 9 22 52 36 31 36 25 17 3 37 25 48 39 20 172 130 129 227 852 867 1104 1461 1564 1517 1570 1609 1517 1497 1586 1913 2087 2166 2148 2284 2421 2528 2615 2720 2899 2968 2953 2987 3093 3252 3439 3584 3610 3650 3674 3694 3746 3799 3884 3880 3663 3723 3739 3720 3686 3624 3584 3580 3538 3551 3592 3609 3601 3585 3733 3830 3832 3810 3769 3724 3686 3675 3675 3706 3743 3778 3805 3816 3799 3770 3732
0 5 32 30 35 34 18 27 19 5 17 3 40 34 121 264 315 141 622 608 984 1002 1281 1398 1490 1548 1497 1486 1604 1873 2057 2299 2302 2068 1918 2081 2269 2428 2603 2784 2931 2964 3005 2938 3064 3255 3489 3580 3638 3707 3764 3712 3692 3894 3792 3714 3740 3923 3833 3873 3918 3928 3889 3894 3892 3858 3846 3819 3782 3760 3754 3936 3958 3929 3904 3875 3854 3862 3864 3864 3880 3892 3889 3866 3840 3805
4 1 32 32 22 3 5 38 14 14 20 6 48 105 267 216 299 316 531 784 945 1061 1255 1368 1495 1550 1579 1665 1740 1963 2205 2200 2172 1864 1537 1611 1609 1728 1876 2176 2512 2686 2731 2794 2699 2575 2522 2691 2827 3008 3375 3624 3608 3608 3663 3710 3800 3778 3703 3680 3792 3864 3975 4082 3997 3878 3959 3984 3981 3986 3978 3955 3940 3965 4031 4031 4007 3993 4001 3992 3998 3980 3960 3948 3924 3888
2 3 22 10 24 24 2 31 14 2 18 80 53 106 168 83 349 320 409 796 923 1108 1265 1368 1504 1632 1744 1818 1918 2008 2019 2059 1926 1660 1437 1446 1613 1584 1552 1576 1716 2038 2368 2557 2614 2598 2487 2429 2518 2700 2979 3229 3426 3581 3604 3577 3563 3674 3677 3638 3876 4038 4072 4318 4512 4310 3734 3709 3773 3890 4003 4040 4062 4049 4037 4076 4105 4098 4102 4101 4086 4064 4044 4016 3987 3965
0 8 10 10 6 32 40 35 2 28 39 74 56 75 86 234 349 305 488 704 882 1059 1024 1073 1216 1545 1738 1804 1979 1952 2021 1969 1899 1677 1502 1316 1491 1562 1554 1551 1651 1800 1992 2161 2306 2387 2376 2332 2236 2154 2275 2648 2998 3371 3615 3609 3632 3659 3654 3787 3926 4123 4151 4463 4798 4665 4317 3812 3648 3639 3727 3826 3914 3963 4031 4106 4140 4171 4176 4180 4156 4142 4122 4077 4049 4023
12 23 0 6 4 3 44 27 2 0 37 30 38 54 105 310 179 215 152 500 832 877 903 940 1036 1124 1066 1302 1568 1696 1789 1894 1853 1619 1379 1156 1073 1375 1492 1527 1586 1636 1731 1897 1996 2018 2050 2088 2045 1968 1876 1891 2219 2656 3044 3427 3532 3647 3658 3793 4076 4187 4336 4507 4968 4688 4605 4305 3875 3638 3592 3804 3918 3988 4034 4096 4151 4202 4213 4217 4193 4191 4188 4145 4106 4053
10 6 0 11 2 0 5 0 0 0 4 16 19 7 4 29 170 156 229 298 408 768 721 668 844 914 737 833 1332 1407 1453 1585 1718 1599 1354 1110 1046 1028 1271 1462 1542 1598 1688 1783 1870 1987 1907 1880 1819 1717 1620 1572 1727 1826 1997 2675 3070 3433 3628 3740 4010 4259 4375 4564 5006 4958 4611 4408 4350 4063 3777 3903 4019 4118 4168 4196 4236 4257 4272 4257 4261 4248 4222 4189 4154 4126
0 0 0 0 0 0 0 0 0 0 2 7 2 0 0 0 2 0 142 383 392 399 593 543 560 603 595 648 731 1156 1197 1095 1252 1282 1206 1050 1102 982 1016 1092 1257 1483 1666 1759 1854 1902 1880 1847 1742 1732 1677 1621 1627 1694 1778 1810 1848 2496 3243 3600 3814 4106 4330 4626 4831 5000 4929 4611 4289 4111 3977 4038 4693 4572 4452 4504 4490 4485 4404 4362 4342 4315 4310 4268 4243 4206
0 0 3 1 1 0 0 0 0 0 0 1 0 0 0 2 16 8 84 127 390 515 351 280 377 411 371 390 561 629 895 815 970 720 816 669 759 666 654 673 970 1222 1396 1571 1731 1799 1797 1783 1792 1755 1708 1582 1579 1550 1602 1593 1631 1643 1851 2614 3292 3685 3990 4545 4675 4901 4979 4872 4510 4276 4121 4186 4837 4713 4652 4681 4722 4726 4693 4693 4628 4521 4502 4448 4434 4394
0 0 0 0 6 0 0 0 0 0 0 0 0 0 0 0 2 0 25 103 143 339 405 414 393 216 144 340 316 152 371 402 452 375 286 147 151 142 185 188 283 768 1076 1191 1425 1730 1816 1837 1842 1842 1733 1588 1536 1546 1569 1611 1626 1762 1915 2252 2633 3121 3604 4307 4605 4697 4888 4907 4824 4503 4435 4470 4905 4750 4683 4686 4758 4806 4869 4888 4906 4890 4845 4822 4790 4792
1 4 2 3 3 1 0 0 0 0 0 0 0 0 0 0 0 0 0 92 0 12 123 326 374 300 264 177 184 38 62 134 189 208 111 0 0 0 0 0 0 141 981 1114 1250 1526 1755 1886 1919 1836 1752 1622 1561 1529 1479 1573 1779 1962 2180 2308 2467 2918 3435 4007 4508 4511 4758 4848 4866 4756 4649 4628 4789 4751 4733 4676 4660 4732 4865 4901 5049 5144 5176 5150 5200 5217
Wind_Speed
nan nan nan nan nan nan nan nan nan nan nan nan nan nan nan nan nan nan nan nan nan nan nan nan nan nan 13 10 6 3 4 4 8 12 8 6 7 9 14 16 17 17 19 17 18 20 20 19 16 12 7 4 3 3 5 4 2 2 3 4 4 6 6 7 7 7 6 6 7 8 8 9 9 9 9 10 10 10 12 13 13 13 13 13 12 11
nan nan nan nan nan nan nan nan nan nan nan nan nan nan nan nan nan nan nan nan nan nan nan nan nan nan nan 10 9 6 3 4 9 11 10 11 10 8 15 17 18 18 11 13 14 17 19 17 17 14 9 6 5 3 5 5 4 3 4 3 5 7 5 6 7 8 8 7 7 6 7 8 8 8 8 10 10 10 11 12 13 13 12 12 12 10
nan nan nan nan nan nan nan nan nan nan nan nan nan nan nan nan nan nan nan nan nan nan nan nan nan nan nan 7 11 8 3 7 10 13 14 15 13 7 12 15 16 15 14 15 17 15 16 18 18 15 12 9 7 5 5 4 4 3 4 5 7 7 5 6 6 8 8 7 7 6 7 6 8 9 9 8 8 9 11 12 12 12 12 11 11 10
nan nan nan nan nan nan nan nan nan nan nan nan nan nan nan nan nan nan nan nan nan nan nan nan nan nan nan 9 10 3 4 6 8 9 8 13 15 12 14 15 17 20 18 20 20 18 16 17 17 15 13 12 8 5 5 4 3 3 4 5 5 6 6 6 5 6 7 6 7 7 7 7 6 8 8 8 7 9 10 12 12 12 11 11 10 10
nan nan nan nan nan nan nan nan nan nan nan nan nan nan nan nan nan nan nan nan nan nan nan nan nan nan nan nan 16 9 7 7 8 5 3 3 6 9 8 8 12 19 20 19 18 16 15 16 17 17 14 11 9 5 5 4 3 4 3 4 5 7 6 7 5 3 5 6 6 5 7 6 6 9 7 8 9 9 10 10 10 12 10 10 10 10
nan nan nan nan nan nan nan nan nan nan nan nan nan nan nan nan nan nan nan nan nan nan nan nan nan nan nan nan nan nan nan 13 11 6 3 1 4 11 6 6 9 12 13 18 20 20 19 17 15 14 13 13 10 5 3 4 4 4 5 6 7 9 8 7 5 3 3 4 4 3 3 4 5 7 6 8 8 8 8 11 10 9 10 9 9 9
nan nan nan nan nan nan nan nan nan nan nan nan nan nan nan nan nan nan nan nan nan nan nan nan nan nan nan nan nan nan nan nan 9 6 4 4 9 10 6 4 7 10 11 13 14 15 16 15 14 15 15 14 12 6 4 5 5 5 5 6 8 9 9 8 6 3 2 3 5 4 3 3 3 5 8 8 9 7 8 7 7 9 8 8 8 8
nan nan nan nan nan nan nan nan nan nan nan nan nan nan nan nan nan nan nan nan nan nan nan nan nan nan nan nan nan nan nan nan nan nan 6 7 10 7 6 4 5 8 10 11 16 18 17 16 16 18 18 14 13 7 5 5 5 6 5 5 7 9 9 8 7 3 2 2 4 4 4 4 4 6 7 7 8 6 5 6 7 6 7 7 7 8
nan nan nan nan nan nan nan nan nan nan nan nan nan nan nan nan nan nan nan nan nan nan nan nan nan nan nan nan nan nan nan nan nan nan nan nan 3 3 7 6 4 6 8 8 10 16 18 17 16 15 16 16 13 8 4 5 6 6 7 6 7 8 8 8 6 4 3 4 5 4 3 2 6 8 8 8 7 5 5 5 6 5 5 5 6 7
nan nan nan nan nan nan nan nan nan nan nan nan nan nan nan nan nan nan nan nan nan nan nan nan nan nan nan nan nan nan nan nan nan nan nan nan nan 1 5 6 4 2 2 3 8 11 15 15 14 14 14 14 12 8 4 5 7 7 8 7 6 6 7 7 6 5 4 5 6 5 2 1 5 8 9 8 6 6 6 5 5 5 3 4 5 6
nan nan nan nan nan nan nan nan nan nan nan nan nan nan nan nan nan nan nan nan nan nan nan nan nan nan nan nan nan nan nan 3 8 nan nan nan nan 3 1 4 6 6 4 3 5 7 10 12 13 12 12 13 11 7 6 6 7 7 7 7 6 5 7 6 5 6 5 6 5 4 2 1 3 5 8 7 8 8 8 7 6 4 4 3 5 4
nan nan nan nan nan nan nan nan nan nan nan nan nan nan nan nan nan nan nan nan nan nan nan nan nan nan nan nan nan nan nan nan nan nan nan nan nan nan nan nan 5 6 5 4 3 3 6 7 10 11 11 12 12 9 7 6 7 7 7 7 6 5 5 6 5 5 6 6 5 4 2 1 3 5 6 5 7 7 8 8 7 6 5 4 4 3
nan nan nan nan nan nan nan nan nan nan nan nan nan nan nan nan nan nan nan nan nan nan nan nan nan nan nan nan nan nan nan nan nan nan nan nan nan nan nan nan 5 5 6 6 3 2 3 7 11 12 11 10 11 10 9 7 7 7 7 7 6 3 4 5 5 5 5 6 5 4 2 1 5 6 5 6 6 7 8 8 8 6 6 5 3 3
nan nan nan nan nan nan nan nan nan nan nan nan nan nan nan nan nan nan nan nan nan nan nan nan nan nan nan nan nan nan nan nan nan nan nan nan nan 14 15 nan 6 4 5 4 2 1 3 6 9 10 10 11 10 10 8 7 7 8 7 6 5 2 4 6 5 4 5 4 5 4 3 4 6 6 6 6 6 7 8 7 7 6 5 4 4 3
nan nan nan nan nan nan nan nan nan nan nan nan nan nan nan nan nan nan nan nan nan nan nan nan nan nan nan nan nan nan nan nan nan nan nan nan nan 8 12 12 7 4 3 2 3 2 4 6 9 10 10 11 12 11 9 6 6 8 8 7 4 3 3 4 4 5 4 5 6 6 4 6 8 8 8 7 7 7 7 7 6 6 6 4 4 3
nan nan nan nan nan nan nan nan nan nan nan nan nan nan nan nan nan nan nan nan nan nan nan nan nan nan nan nan nan nan nan nan nan nan nan nan nan nan 9 5 2 3 3 4 3 3 4 3 7 8 9 10 10 11 9 7 6 6 6 7 5 4 3 4 4 5 5 7 8 7 6 7 8 10 10 10 10 9 7 6 5 5 5 4 3 3
nan nan nan nan nan nan nan nan nan nan nan nan nan nan nan nan nan nan nan nan nan nan nan nan nan nan nan nan nan nan nan nan nan nan nan nan nan nan nan nan 4 4 4 4 3 3 3 1 4 9 11 10 9 10 11 9 6 5 6 6 5 4 4 3 4 5 8 9 9 8 8 9 10 9 8 7 6 6 7 6 6 5 4 4 4 4
nan nan nan nan nan nan nan nan nan nan nan nan nan nan nan nan nan nan nan nan nan nan nan nan nan nan nan nan nan nan nan nan nan nan nan nan nan nan nan nan 4 4 4 4 2 1 1 2 5 6 9 11 11 11 11 11 7 5 4 5 5 4 2 3 5 6 9 8 8 8 8 9 9 9 8 8 8 9 8 7 7 7 6 4 3 4
nan nan nan nan nan nan nan nan nan nan nan nan nan nan nan nan nan nan nan nan nan nan nan nan nan nan nan nan nan nan nan nan nan nan nan nan nan nan nan nan 3 4 6 8 6 9 9 5 2 4 10 11 10 10 10 10 9 6 4 4 4 3 1 4 8 9 10 9 10 11 10 10 11 11 11 11 11 11 8 6 6 5 4 5 6 5
nan nan nan nan nan nan nan nan nan nan nan nan nan nan nan nan nan nan nan nan nan nan nan nan nan nan nan nan nan nan nan nan nan nan nan nan nan nan nan 6 4 1 5 7 8 9 7 4 2 6 9 11 11 9 7 8 7 6 4 4 3 3 5 7 7 9 9 9 10 11 12 12 12 11 11 11 11 9 8 7 6 6 7 4 6 5
nan nan nan nan nan nan nan nan nan nan nan nan nan nan nan nan nan nan nan nan nan nan nan nan nan nan nan nan nan nan nan nan nan nan nan nan nan nan nan 11 10 7 6 7 9 10 10 6 1 3 5 7 8 8 5 4 5 4 5 3 3 4 4 4 5 7 8 9 9 10 10 11 11 10 11 12 10 9 9 9 8 8 7 10 7 6
nan nan nan nan nan nan nan nan nan nan nan nan nan nan nan nan nan nan nan nan nan nan nan nan nan nan nan nan nan nan nan nan nan nan nan nan nan nan nan 12 14 12 9 8 8 12 14 9 4 2 4 7 10 9 5 4 4 4 3 3 4 4 3 2 4 5 6 9 9 8 9 10 12 12 12 10 9 9 9 9 8 9 10 8 7 6
nan nan nan nan nan nan nan nan nan nan nan nan nan nan nan nan nan nan nan nan nan nan nan nan nan nan nan nan nan nan nan nan nan nan nan nan nan nan nan 12 14 15 14 9 8 12 14 9 6 5 7 9 11 9 6 5 4 3 3 5 5 3 2 3 4 5 7 8 8 8 10 12 12 13 11 9 9 9 9 9 9 10 8 7 8 7
nan nan nan nan nan nan nan nan nan nan nan nan nan nan nan nan nan nan nan nan nan nan nan nan nan nan nan nan nan nan nan nan nan nan nan nan nan nan nan 13 14 15 14 10 8 13 14 11 11 12 10 9 9 8 5 4 5 5 6 5 5 2 3 5 6 8 9 9 9 9 10 11 12 11 9 8 9 9 9 9 9 9 8 7 7 5
nan nan nan nan nan nan nan nan nan nan nan nan nan nan nan nan nan nan nan nan nan nan nan nan nan nan nan nan nan nan nan nan nan nan nan nan nan nan nan 13 14 14 17 14 12 16 19 17 16 13 9 8 8 5 4 5 5 5 5 6 5 5 6 6 8 8 9 10 9 11 11 11 12 10 8 8 10 9 8 8 9 9 7 6 5 4
nan nan nan nan nan nan nan nan nan nan nan nan nan nan nan nan nan nan nan nan nan nan nan nan nan nan nan nan nan nan nan nan nan nan nan nan nan nan 13 15 15 16 18 18 16 21 22 18 17 13 9 9 7 4 4 4 5 5 6 5 6 8 8 7 8 7 8 9 9 10 10 10 11 9 8 8 9 8 8 8 9 8 8 6 4 4
nan nan nan nan nan nan nan nan nan nan nan nan nan nan nan nan nan nan nan nan nan nan nan nan nan nan nan nan nan nan nan nan nan nan nan nan nan nan 12 13 15 18 21 22 23 24 25 23 18 12 8 7 5 5 6 5 4 4 6 7 8 9 9 8 8 7 7 8 7 8 7 8 9 10 10 10 10 10 10 9 8 8 7 7 5 4
nan nan nan nan nan nan nan nan nan nan nan nan nan nan nan nan nan nan nan nan nan nan nan nan nan nan nan nan nan nan nan nan nan nan nan nan nan nan 11 11 13 17 24 27 29 29 26 22 18 12 8 7 6 7 9 8 5 4 5 6 8 9 10 10 8 7 7 8 7 7 7 8 9 11 11 13 13 11 10 10 9 9 8 8 6 5
nan nan nan nan nan nan nan nan nan nan nan nan nan nan nan nan nan nan nan nan nan nan nan nan nan nan nan nan nan nan nan nan nan nan nan nan nan nan 13 11 11 15 23 26 27 26 24 21 18 12 9 8 8 9 9 9 8 6 6 8 9 10 9 10 9 8 8 8 7 8 10 12 13 14 14 13 12 11 10 10 11 10 10 9 7 7
nan nan nan nan nan nan nan nan nan nan nan nan nan nan nan nan nan nan nan nan nan nan nan nan nan nan nan nan nan nan nan nan nan nan nan nan nan nan 11 10 8 13 18 20 21 22 22 17 14 11 10 10 9 10 11 10 8 5 3 3 4 6 9 11 9 9 8 7 8 10 12 13 14 14 13 12 10 10 11 12 12 12 10 9 8 8
nan nan nan nan nan nan nan nan nan nan nan nan nan nan nan nan nan nan nan nan nan nan nan nan nan nan nan nan nan nan nan nan nan nan nan nan nan nan 9 7 8 11 14 15 18 21 20 16 14 15 14 12 10 9 9 9 7 6 5 4 3 4 8 10 11 10 9 8 11 13 14 14 14 14 12 11 11 12 11 11 12 11 10 9 9 8
nan nan nan nan nan nan nan nan nan nan nan nan nan nan nan nan nan nan nan nan nan nan nan nan nan nan nan nan nan nan nan nan nan nan nan nan nan nan nan 4 5 9 12 15 18 20 19 18 20 20 16 14 11 9 11 11 10 7 7 7 6 4 6 7 9 9 10 10 12 13 12 13 13 13 12 12 11 11 12 12 12 11 10 10 9 9
nan nan nan nan nan nan nan nan nan nan nan nan nan nan nan nan nan nan nan nan nan nan nan nan nan nan nan nan nan nan 40 38 36 34 nan nan nan nan nan 3 3 6 10 13 16 18 19 20 20 17 13 14 12 10 9 9 8 6 6 6 6 6 5 5 5 7 8 10 11 11 11 12 11 10 10 10 11 12 13 12 11 10 10 9 10 11
nan nan nan nan nan nan nan nan nan nan nan nan nan nan nan nan nan 59 53 nan nan nan nan nan nan nan nan nan 36 36 41 36 32 36 34 29 nan nan nan 9 6 6 10 12 13 15 17 20 21 17 13 12 12 10 11 11 8 7 7 8 9 7 8 7 6 6 6 6 6 5 5 5 5 5 5 7 8 9 9 8 7 9 11 12 12 9
nan nan nan nan nan nan nan nan nan nan nan nan nan nan nan nan nan nan nan nan nan nan nan nan 42 39 45 47 42 38 37 36 42 48 47 41 32 23 17 18 16 14 16 18 19 20 22 20 19 19 18 19 19 21 22 21 19 22 21 16 12 11 11 9 8 8 7 5 4 3 3 2 2 2 3 4 5 5 5 5 6 8 10 11 10 9
nan nan nan nan nan nan nan nan nan nan nan nan nan nan nan nan nan nan nan nan nan 56 52 46 42 43 45 48 46 43 42 44 51 53 49 45 39 29 25 22 20 20 23 26 26 25 25 24 20 17 18 25 27 26 24 22 23 22 19 18 15 15 13 12 10 9 9 8 5 4 3 2 2 2 3 3 4 4 4 5 6 7 9 9 8 10
nan nan nan nan nan nan nan nan nan nan nan nan nan nan nan nan nan nan 53 54 56 54 53 48 46 48 49 46 47 44 45 51 54 51 50 48 43 37 32 28 27 26 28 31 30 30 30 29 29 29 32 33 31 29 27 28 27 25 25 22 20 18 16 14 12 10 10 9 7 6 5 5 4 3 3 4 5 5 5 5 6 6 9 8 8 9
nan nan nan nan nan nan nan nan nan nan nan nan nan nan nan nan nan nan nan 50 56 59 56 52 49 51 53 53 50 49 48 55 54 51 51 49 44 39 36 34 33 32 32 34 35 35 36 36 36 36 36 36 35 31 29 29 29 28 26 23 22 20 17 14 12 12 12 10 10 8 8 7 6 6 6 7 6 7 6 6 7 7 9 9 9 9
nan nan nan nan nan nan nan nan nan nan nan nan nan nan nan nan nan nan 47 52 54 59 59 55 53 54 54 53 51 47 43 51 46 50 48 46 45 42 39 38 38 36 35 35 35 36 39 40 40 40 42 43 43 40 33 29 29 28 24 23 22 21 18 14 13 14 14 13 12 10 9 9 9 8 9 9 9 9 9 10 10 10 11 10 10 9
nan nan nan nan nan nan nan nan nan nan nan nan nan nan nan nan nan nan 52 54 56 59 61 58 56 57 57 57 53 52 47 44 42 44 45 44 43 42 41 40 40 39 37 35 36 34 34 37 44 47 47 47 45 42 40 35 32 27 25 24 24 22 19 17 17 16 16 14 13 13 12 12 11 11 11 11 11 12 11 11 12 12 13 13 11 11
nan nan nan nan nan nan nan nan nan nan nan nan nan nan nan 68 59 58 59 54 54 58 63 62 61 60 58 57 52 50 47 45 43 43 44 44 44 45 44 43 41 39 38 36 34 32 33 35 39 42 44 42 42 42 41 38 36 34 33 33 31 26 26 29 29 27 24 21 19 17 15 14 13 12 13 14 14 14 14 15 15 15 15 14 13 12
nan nan nan nan nan nan nan nan nan nan nan nan nan nan 72 66 67 65 63 60 55 59 65 66 63 62 59 56 52 50 46 48 48 46 47 46 44 43 45 46 45 43 40 37 36 34 31 31 33 37 41 42 43 43 41 41 42 40 40 40 39 38 37 35 32 31 30 26 23 21 19 17 17 16 16 17 18 18 17 17 17 16 16 14 14 13
nan nan nan nan nan nan nan nan nan nan nan nan nan 62 78 71 69 66 63 60 59 62 68 67 65 63 61 58 54 51 52 54 51 48 46 45 45 46 47 47 46 43 41 40 39 35 34 34 34 35 36 38 40 41 41 43 43 42 42 43 41 39 39 37 35 32 29 27 25 24 22 22 20 21 22 21 21 21 20 21 21 20 19 17 15 14
nan nan nan nan nan nan nan nan nan nan nan nan nan 60 65 nan 69 72 69 64 64 65 68 67 67 64 63 61 56 56 56 55 52 48 47 46 45 46 47 47 45 42 41 40 38 35 35 35 34 34 33 34 36 38 39 41 42 42 43 43 39 39 38 38 36 34 32 30 27 26 25 24 24 24 25 24 24 24 23 24 24 24 24 22 19 17
nan nan nan nan nan nan nan nan nan nan nan nan nan nan nan 72 74 78 76 69 68 70 71 69 69 67 67 63 61 59 57 56 51 49 49 48 47 48 48 46 43 42 41 40 38 36 35 35 34 33 34 33 34 35 37 39 42 43 45 43 42 42 41 40 37 35 33 32 31 29 28 28 28 27 27 27 28 27 26 27 28 28 28 28 25 21
nan nan nan nan nan nan nan nan nan nan nan nan nan nan 67 70 74 79 80 76 75 74 74 73 72 70 70 68 63 61 58 54 55 53 52 52 52 50 49 47 46 44 44 43 40 37 35 35 35 35 35 34 32 33 35 37 40 43 41 41 43 43 43 43 41 38 36 35 35 33 34 33 32 31 31 31 31 29 30 30 30 30 31 31 29 26
nan nan nan nan nan nan nan nan nan nan nan nan nan nan nan nan 75 79 76 74 78 79 79 79 76 73 73 72 68 63 61 59 57 55 52 53 54 53 50 49 46 44 44 44 41 38 38 37 37 36 36 35 32 32 33 35 36 37 38 41 43 44 45 45 44 42 41 39 39 39 39 36 36 36 37 37 37 36 35 35 34 33 33 33 33 32
nan nan nan nan nan nan nan nan nan nan nan nan nan nan nan nan nan nan 75 73 74 79 80 80 80 79 77 75 72 65 62 62 63 62 58 53 52 52 51 50 49 48 46 44 43 40 38 39 38 38 37 36 34 32 32 32 32 33 34 36 39 41 43 44 44 43 43 43 42 41 40 39 38 40 41 44 44 43 42 41 39 37 36 36 36 36
nan nan nan nan nan nan nan nan nan nan nan nan nan nan nan nan nan nan nan 75 73 80 84 84 84 81 78 75 73 70 66 66 65 63 61 58 56 54 52 51 49 48 47 48 46 44 40 39 39 39 40 39 37 37 36 34 32 31 32 31 33 35 38 40 40 42 42 42 42 41 41 40 41 44 47 49 50 51 50 47 46 44 42 43 43 39
nan nan nan nan nan nan nan nan nan nan nan nan nan nan nan nan nan nan nan 76 73 76 83 84 86 87 81 75 74 73 70 68 68 66 64 60 58 56 55 54 52 51 51 49 47 48 46 41 38 39 41 42 41 41 40 38 35 33 31 30 30 32 34 34 36 36 38 38 38 38 39 41 42 43 42 42 43 44 46 50 53 51 46 45 45 47
nan nan nan nan nan nan nan nan nan nan nan nan nan nan nan nan nan nan nan nan nan nan 78 83 84 87 87 81 75 nan nan 70 69 68 67 nan nan nan nan nan nan 55 54 52 51 50 48 42 36 36 39 40 39 39 39 39 36 35 32 30 30 31 32 33 33 32 33 33 33 32 35 36 37 36 36 35 36 37 39 40 47 55 55 51 49 51
Wind_Direction
nan nan nan nan nan nan nan nan nan nan nan nan nan nan nan nan nan nan nan nan nan nan nan nan nan nan 257 281 281 295 315 337 320 321 322 1 8 41 51 34 23 21 19 12 8 9 14 12 8 4 353 355 350 307 298 296 278 215 212 220 193 185 181 158 145 137 130 120 124 124 110 99 102 101 101 103 105 98 93 90 88 85 84 82 79 79
nan nan nan nan nan nan nan nan nan nan nan nan nan nan nan nan nan nan nan nan nan nan nan nan nan nan nan 278 281 251 265 23 13 351 339 355 354 28 47 33 23 29 21 7 11 9 11 13 10 6 1 349 347 337 310 311 301 234 211 210 205 203 184 153 141 142 138 135 128 117 105 112 115 112 104 102 104 97 99 94 90 88 86 80 78 77
nan nan nan nan nan nan nan nan nan nan nan nan nan nan nan nan nan nan nan nan nan nan nan nan nan nan nan 276 267 268 32 65 45 15 355 341 337 3 45 34 24 27 22 14 16 9 9 11 9 9 7 358 347 332 322 301 279 251 215 202 211 204 197 172 158 156 144 150 147 133 132 116 132 130 120 115 111 108 99 96 93 92 89 83 82 78
nan nan nan nan nan nan nan nan nan nan nan nan nan nan nan nan nan nan nan nan nan nan nan nan nan nan nan 230 258 273 54 100 86 51 357 329 331 351 19 19 20 23 18 17 13 10 6 8 10 9 10 5 347 323 310 301 325 262 228 214 213 212 211 197 178 156 153 152 154 149 158 142 128 134 137 131 120 104 102 95 94 95 91 86 82 77
nan nan nan nan nan nan nan nan nan nan nan nan nan nan nan nan nan nan nan nan nan nan nan nan nan nan nan nan 211 179 132 145 135 134 188 269 322 346 358 18 29 24 19 15 11 9 4 3 9 8 7 4 358 339 321 308 289 213 266 237 226 217 222 211 206 185 168 160 169 171 178 172 162 161 142 141 131 107 101 104 100 88 92 88 83 78
nan nan nan nan nan nan nan nan nan nan nan nan nan nan nan nan nan nan nan nan nan nan nan nan nan nan nan nan nan nan nan 151 154 181 185 210 256 242 252 33 41 45 34 17 8 6 6 3 358 359 359 8 10 352 306 286 271 232 214 222 225 217 217 223 227 231 183 136 137 155 158 157 138 128 137 114 102 109 99 86 94 98 89 86 86 80
nan nan nan nan nan nan nan nan nan nan nan nan nan nan nan nan nan nan nan nan nan nan nan nan nan nan nan nan nan nan nan nan 166 169 149 206 238 260 296 357 25 31 37 33 19 8 3 358 352 359 2 9 13 3 275 262 266 257 225 218 233 229 222 230 234 246 185 156 160 146 140 152 117 104 116 105 102 101 113 128 103 93 96 85 72 72
nan nan nan nan nan nan nan nan nan nan nan nan nan nan nan nan nan nan nan nan nan nan nan nan nan nan nan nan nan nan nan nan nan nan 153 207 225 250 283 324 6 24 32 26 17 7 1 355 353 0 5 5 14 359 296 275 263 274 256 235 236 231 231 232 236 243 216 188 191 201 186 165 109 85 90 90 103 129 132 108 102 101 90 80 72 63
nan nan nan nan nan nan nan nan nan nan nan nan nan nan nan nan nan nan nan nan nan nan nan nan nan nan nan nan nan nan nan nan nan nan nan nan 216 250 283 301 342 19 24 23 16 5 359 356 354 357 4 9 4 358 327 283 261 253 251 248 238 240 241 241 253 244 238 219 224 234 231 164 126 122 136 154 155 145 129 113 124 109 97 85 77 64
nan nan nan nan nan nan nan nan nan nan nan nan nan nan nan nan nan nan nan nan nan nan nan nan nan nan nan nan nan nan nan nan nan nan nan nan nan 342 282 296 308 298 307 33 30 8 359 349 347 357 7 1 359 353 319 272 254 248 242 247 251 246 237 243 263 259 261 254 244 250 257 68 140 153 169 172 143 131 132 113 111 118 116 94 83 70
nan nan nan nan nan nan nan nan nan nan nan nan nan nan nan nan nan nan nan nan nan nan nan nan nan nan nan nan nan nan nan 167 129 nan nan nan nan 116 169 292 282 276 302 4 21 4 354 342 343 352 2 4 353 336 314 282 272 265 257 253 254 250 232 241 259 268 276 265 260 261 285 38 145 171 178 166 145 144 147 129 130 128 108 101 82 75
nan nan nan nan nan nan nan nan nan nan nan nan nan nan nan nan nan nan nan nan nan nan nan nan nan nan nan nan nan nan nan nan nan nan nan nan nan nan nan nan 277 287 296 332 315 333 333 321 340 352 5 2 357 341 324 288 271 270 265 261 263 238 238 234 242 259 269 267 267 259 276 146 167 190 174 147 133 133 128 129 134 142 154 130 120 104
nan nan nan nan nan nan nan nan nan nan nan nan nan nan nan nan nan nan nan nan nan nan nan nan nan nan nan nan nan nan nan nan nan nan nan nan nan nan nan nan 319 298 287 277 285 308 325 339 345 354 4 2 359 353 333 304 273 264 262 273 276 245 232 233 239 251 263 263 259 258 265 177 194 192 174 156 143 143 133 138 145 155 136 149 146 111
nan nan nan nan nan nan nan nan nan nan nan nan nan nan nan nan nan nan nan nan nan nan nan nan nan nan nan nan nan nan nan nan nan nan nan nan nan 18 7 nan 333 285 277 281 278 0 6 351 347 345 352 3 358 350 334 306 279 261 254 268 276 258 226 220 225 240 251 261 258 250 219 184 199 196 182 167 149 145 147 147 136 132 126 126 94 76
nan nan nan nan nan nan nan nan nan nan nan nan nan nan nan nan nan nan nan nan nan nan nan nan nan nan nan nan nan nan nan nan nan nan nan nan nan 9 350 341 333 285 263 214 191 69 38 7 344 340 352 359 353 346 335 305 285 266 262 264 274 247 213 216 227 224 240 233 238 232 201 184 194 196 188 174 170 167 162 157 147 139 148 138 121 91
nan nan nan nan nan nan nan nan nan nan nan nan nan nan nan nan nan nan nan nan nan nan nan nan nan nan nan nan nan nan nan nan nan nan nan nan nan nan 221 258 257 225 223 197 162 95 80 24 348 337 342 351 345 345 340 323 286 277 274 271 278 273 223 196 210 215 227 223 219 217 198 181 192 195 191 188 185 181 178 167 160 153 146 140 150 159
nan nan nan nan nan nan nan nan nan nan nan nan nan nan nan nan nan nan nan nan nan nan nan nan nan nan nan nan nan nan nan nan nan nan nan nan nan nan nan nan 165 188 213 208 187 137 80 51 345 339 338 337 337 345 351 336 310 307 282 268 271 254 216 188 193 211 219 220 214 206 194 189 191 192 192 189 185 187 190 183 176 175 154 174 194 207
nan nan nan nan nan nan nan nan nan nan nan nan nan nan nan nan nan nan nan nan nan nan nan nan nan nan nan nan nan nan nan nan nan nan nan nan nan nan nan nan 154 167 205 233 241 108 69 342 342 335 342 344 344 349 349 342 316 287 275 278 279 260 241 182 198 213 220 223 213 201 194 190 188 185 181 187 192 201 205 195 192 194 198 185 203 226
nan nan nan nan nan nan nan nan nan nan nan nan nan nan nan nan nan nan nan nan nan nan nan nan nan nan nan nan nan nan nan nan nan nan nan nan nan nan nan nan 86 128 200 220 219 203 202 216 245 2 9 358 345 337 344 341 315 279 259 267 283 299 245 208 199 206 211 218 208 200 197 197 192 185 183 188 197 206 206 205 203 199 189 203 213 225
nan nan nan nan nan nan nan nan nan nan nan nan nan nan nan nan nan nan nan nan nan nan nan nan nan nan nan nan nan nan nan nan nan nan nan nan nan nan nan 329 356 171 206 233 236 225 232 264 7 30 10 355 341 325 329 336 312 300 281 274 272 250 218 208 203 208 209 209 208 205 204 201 197 191 189 194 202 203 204 208 205 196 204 206 221 227
nan nan nan nan nan nan nan nan nan nan nan nan nan nan nan nan nan nan nan nan nan nan nan nan nan nan nan nan nan nan nan nan nan nan nan nan nan nan nan 311 306 302 277 272 272 261 260 259 165 60 5 337 309 285 280 320 324 281 250 256 279 280 247 215 209 214 207 213 209 214 213 209 205 196 196 199 198 196 202 205 199 199 200 213 212 228
nan nan nan nan nan nan nan nan nan nan nan nan nan nan nan nan nan nan nan nan nan nan nan nan nan nan nan nan nan nan nan nan nan nan nan nan nan nan nan 297 298 291 292 298 304 284 265 245 206 228 276 268 277 278 303 327 300 258 245 238 248 252 237 230 212 208 216 216 214 217 213 212 208 205 206 202 196 197 203 201 198 200 209 209 209 227
nan nan nan nan nan nan nan nan nan nan nan nan nan nan nan nan nan nan nan nan nan nan nan nan nan nan nan nan nan nan nan nan nan nan nan nan nan nan nan 288 289 297 295 298 304 278 257 231 226 266 292 302 307 298 305 311 304 259 225 224 223 249 250 222 197 195 208 214 214 212 211 214 213 213 211 204 198 201 205 201 201 206 202 198 206 214
nan nan nan nan nan nan nan nan nan nan nan nan nan nan nan nan nan nan nan nan nan nan nan nan nan nan nan nan nan nan nan nan nan nan nan nan nan nan nan 264 267 272 277 281 276 258 240 221 231 237 242 264 274 269 288 303 283 245 217 209 209 227 238 219 203 199 200 200 200 206 211 213 216 219 214 203 199 204 206 209 211 209 201 198 203 212
nan nan nan nan nan nan nan nan nan nan nan nan nan nan nan nan nan nan nan nan nan nan nan nan nan nan nan nan nan nan nan nan nan nan nan nan nan nan nan 233 246 262 268 264 248 233 223 222 235 233 239 266 274 265 264 283 274 250 228 212 201 202 219 214 211 210 206 204 202 203 204 206 211 212 210 201 202 205 211 214 216 211 205 211 209 216
nan nan nan nan nan nan nan nan nan nan nan nan nan nan nan nan nan nan nan nan nan nan nan nan nan nan nan nan nan nan nan nan nan nan nan nan nan nan 220 224 229 240 249 251 236 227 230 238 237 226 227 245 251 239 241 257 254 232 218 211 204 210 216 210 212 210 213 213 211 208 209 206 205 201 200 200 203 210 216 217 217 214 209 219 222 231
nan nan nan nan nan nan nan nan nan nan nan nan nan nan nan nan nan nan nan nan nan nan nan nan nan nan nan nan nan nan nan nan nan nan nan nan nan nan 235 233 233 231 235 238 229 224 230 237 244 232 225 241 242 210 206 214 214 205 207 210 209 212 215 214 214 211 213 217 213 211 208 208 206 203 199 201 204 211 214 215 216 216 214 223 224 236
nan nan nan nan nan nan nan nan nan nan nan nan nan nan nan nan nan nan nan nan nan nan nan nan nan nan nan nan nan nan nan nan nan nan nan nan nan nan 236 233 232 223 221 222 221 223 228 237 243 234 212 214 207 192 190 183 167 170 200 208 212 217 216 213 217 213 210 211 202 196 195 199 205 207 207 207 209 210 210 209 210 210 214 224 228 227
nan nan nan nan nan nan nan nan nan nan nan nan nan nan nan nan nan nan nan nan nan nan nan nan nan nan nan nan nan nan nan nan nan nan nan nan nan nan 229 226 224 218 220 224 221 221 223 229 234 229 204 197 199 190 183 174 160 165 183 197 205 210 215 221 220 218 217 213 205 197 199 202 205 209 214 216 216 212 208 206 205 208 214 220 221 223
nan nan nan nan nan nan nan nan nan nan nan nan nan nan nan nan nan nan nan nan nan nan nan nan nan nan nan nan nan nan nan nan nan nan nan nan nan nan 215 213 215 218 229 234 226 220 221 227 230 222 205 197 199 191 184 173 157 137 135 178 208 213 218 224 222 224 223 218 216 212 210 211 211 214 219 221 221 217 211 207 208 209 214 219 222 226
nan nan nan nan nan nan nan nan nan nan nan nan nan nan nan nan nan nan nan nan nan nan nan nan nan nan nan nan nan nan nan nan nan nan nan nan nan nan 192 195 196 213 230 236 228 222 222 219 213 211 204 195 196 196 184 166 147 138 121 121 144 194 217 223 220 220 219 213 219 219 217 215 211 213 216 215 216 217 216 214 214 214 218 222 229 236
nan nan nan nan nan nan nan nan nan nan nan nan nan nan nan nan nan nan nan nan nan nan nan nan nan nan nan nan nan nan nan nan nan nan nan nan nan nan nan 199 206 221 228 227 227 223 217 211 211 212 202 191 192 194 185 174 161 153 117 111 113 157 202 209 213 212 206 206 214 218 220 217 215 211 207 209 209 214 216 218 220 221 226 230 238 240
nan nan nan nan nan nan nan nan nan nan nan nan nan nan nan nan nan nan nan nan nan nan nan nan nan nan nan nan nan nan 196 191 193 200 nan nan nan nan nan 249 258 251 239 230 227 219 214 213 217 219 207 196 194 193 184 178 163 133 118 119 134 168 158 158 181 189 188 196 209 216 218 220 221 215 213 212 214 217 222 226 229 233 238 244 244 243
nan nan nan nan nan nan nan nan nan nan nan nan nan nan nan nan nan 208 204 nan nan nan nan nan nan nan nan nan 183 198 204 199 197 202 209 211 nan nan nan 205 227 249 240 229 225 218 211 213 215 216 215 203 190 186 189 181 157 152 180 190 192 170 155 151 150 156 163 185 202 210 217 226 231 231 233 236 238 240 245 249 256 256 255 253 256 259
nan nan nan nan nan nan nan nan nan nan nan nan nan nan nan nan nan nan nan nan nan nan nan nan 195 192 192 194 192 203 212 208 209 210 211 210 210 207 214 215 211 215 216 209 204 200 202 212 216 211 201 189 187 193 195 183 180 196 202 203 194 178 171 164 159 161 169 179 181 188 201 228 238 257 263 268 274 281 292 292 278 277 273 271 274 271
nan nan nan nan nan nan nan nan nan nan nan nan nan nan nan nan nan nan nan nan nan 198 195 195 191 192 197 197 197 196 205 215 215 213 213 215 214 213 220 217 214 222 220 208 206 200 203 204 204 198 190 190 195 197 194 190 196 204 203 203 200 192 181 176 172 172 183 189 194 197 210 234 236 252 270 284 293 307 317 304 298 295 282 277 271 263
nan nan nan nan nan nan nan nan nan nan nan nan nan nan nan nan nan nan 193 198 197 195 195 193 191 191 193 196 195 197 195 208 214 214 211 216 217 217 223 219 220 223 221 211 209 202 200 203 202 197 195 196 197 199 198 201 204 205 206 205 201 199 191 186 180 181 189 195 204 212 222 233 248 260 280 294 308 321 320 309 301 287 275 279 278 273
nan nan nan nan nan nan nan nan nan nan nan nan nan nan nan nan nan nan nan 195 194 193 194 194 193 191 196 196 193 194 191 210 209 212 210 214 216 218 219 220 220 219 219 218 212 206 205 204 204 200 203 203 201 200 203 206 210 209 207 204 203 204 198 194 186 189 195 200 209 218 228 240 255 265 273 281 302 313 315 310 297 297 287 291 285 281
nan nan nan nan nan nan nan nan nan nan nan nan nan nan nan nan nan nan 189 199 193 191 193 192 193 195 198 201 200 203 211 215 208 211 210 212 215 215 218 218 219 217 214 214 218 216 211 210 210 208 206 205 204 197 201 210 215 213 208 207 207 205 201 194 196 201 203 207 215 223 233 243 254 261 269 277 285 291 304 308 308 305 298 297 285 276
nan nan nan nan nan nan nan nan nan nan nan nan nan nan nan nan nan nan 197 198 191 187 192 190 191 195 197 202 207 214 219 228 214 210 209 211 214 214 215 213 212 212 212 214 214 214 213 212 214 210 209 207 204 203 207 209 212 211 211 212 213 208 198 196 204 208 208 210 218 227 235 241 252 256 261 268 271 273 284 289 291 294 298 300 290 270
nan nan nan nan nan nan nan nan nan nan nan nan nan nan nan 183 191 199 203 197 188 188 190 191 191 194 198 206 208 220 215 218 218 215 212 212 214 213 211 209 208 207 210 212 212 212 216 213 212 212 211 209 209 209 211 217 216 211 210 212 211 204 199 201 207 211 212 212 216 223 232 239 248 259 260 261 266 269 272 274 283 291 296 302 299 287
nan nan nan nan nan nan nan nan nan nan nan nan nan nan 185 193 201 202 199 194 189 187 188 192 193 192 195 204 210 217 219 219 218 215 213 212 212 210 208 207 206 208 209 209 211 212 219 220 216 212 209 207 210 211 214 218 219 216 216 214 210 204 202 203 209 217 220 221 221 224 230 238 243 253 258 261 261 260 260 262 269 277 287 288 295 304
nan nan nan nan nan nan nan nan nan nan nan nan nan 187 193 198 198 195 194 195 191 188 188 192 195 192 194 201 206 214 217 217 215 213 212 212 211 210 209 208 209 210 209 208 211 210 218 224 222 218 214 209 209 209 211 217 219 217 216 215 208 204 204 206 211 216 223 228 229 229 231 233 241 245 247 253 261 264 264 262 264 267 270 275 279 289
nan nan nan nan nan nan nan nan nan nan nan nan nan 190 190 nan 193 192 195 193 191 188 189 192 194 193 195 201 205 212 215 215 215 213 212 212 212 211 213 214 213 210 209 208 208 209 215 223 223 223 219 216 214 213 212 214 214 214 215 211 206 206 206 207 212 217 220 224 229 234 235 237 239 241 242 248 252 255 259 261 262 264 264 266 267 270
nan nan nan nan nan nan nan nan nan nan nan nan nan nan nan 192 194 194 195 194 190 188 188 193 193 193 196 200 207 211 214 214 216 212 211 210 213 212 214 216 214 209 205 205 207 208 212 220 224 225 225 220 218 215 213 212 213 211 210 205 206 205 205 207 213 218 220 223 225 229 233 236 239 242 243 244 248 248 249 252 256 259 260 261 260 260
nan nan nan nan nan nan nan nan nan nan nan nan nan nan 186 189 193 196 197 193 189 188 190 191 192 194 196 200 206 210 213 212 213 210 208 209 211 211 212 213 212 208 205 205 206 209 214 218 222 225 227 223 219 217 215 214 214 212 208 207 207 206 204 205 211 217 219 221 223 226 231 236 238 241 244 245 245 245 244 248 251 254 256 261 263 261
nan nan nan nan nan nan nan nan nan nan nan nan nan nan nan nan 189 192 196 195 188 187 190 191 193 197 198 200 203 207 208 207 209 210 210 209 211 211 210 211 211 211 209 208 207 210 214 220 224 226 226 225 220 218 215 215 215 214 211 211 210 211 210 209 212 214 217 220 223 226 228 233 235 237 239 240 239 238 238 239 242 245 248 254 260 260
nan nan nan nan nan nan nan nan nan nan nan nan nan nan nan nan nan nan 192 192 188 186 190 193 194 199 200 200 200 204 205 202 202 204 207 210 212 211 210 210 211 212 212 214 214 215 218 221 225 229 229 227 222 221 218 216 215 213 214 215 216 215 217 217 218 220 220 223 225 228 231 233 236 239 237 236 235 236 235 236 238 241 243 247 252 256
nan nan nan nan nan nan nan nan nan nan nan nan nan nan nan nan nan nan nan 188 189 190 191 194 197 200 201 200 199 202 202 199 200 201 204 205 207 209 209 209 211 214 215 216 217 220 221 223 227 231 234 229 224 223 220 216 212 212 213 215 218 219 221 221 222 226 227 228 231 232 232 235 237 239 240 239 239 237 234 232 234 236 239 238 238 246
nan nan nan nan nan nan nan nan nan nan nan nan nan nan nan nan nan nan nan 185 188 192 193 196 197 199 201 201 201 202 203 198 198 200 201 202 204 205 206 207 210 212 215 217 221 222 223 224 228 231 233 230 226 223 222 218 214 211 213 215 219 222 225 224 224 227 229 231 235 236 239 240 241 243 246 248 249 247 241 239 240 236 238 239 231 231
nan nan nan nan nan nan nan nan nan nan nan nan nan nan nan nan nan nan nan nan nan nan 196 197 200 201 200 199 201 nan nan 200 198 200 201 nan nan nan nan nan nan 211 214 218 222 224 226 225 229 232 231 230 230 229 228 225 220 217 215 218 221 227 230 229 227 228 231 235 238 241 244 246 247 248 249 251 251 251 251 246 237 235 237 240 240 239